Terminal Aerodrome Forecast
Issued by NWS

Home | Current Version | Previous Version | Text Only | Print | Product List | Glossary On
Versions: 1 2 3 4 5 6 7 8 9 10 11 12 13 14 15 16 17 18 19 20 21 22 23 24 25 26 27 28 29
000
FTUS45 KRIW 031122
TAFPNA
TAF
KPNA 031122Z 0312/0412 VRB05KT P6SM SKC
     FM032000 31011KT P6SM SCT090
     FM040200 29006KT P6SM FEW110
      AMD LTD TO CLD VIS AND WIND=

USA.gov is the U.S. government's official web portal to all federal, state and local government web resources and services.